Year,Month,Day,Hour,Minute,Value (Times are PST for temperature in C)
2014,01,25,00,00,-0.30
2014,01,25,00,01,-0.30
2014,01,25,00,02,-0.30
2014,01,25,00,03,-0.30
2014,01,25,00,04,-0.30
2014,01,25,00,05,-0.30
2014,01,25,00,06,-0.30
2014,01,25,00,07,-0.30
2014,01,25,00,08,-0.30
2014,01,25,00,09,-0.30
2014,01,25,00,10,-0.30
2014,01,25,00,11,-0.40
2014,01,25,00,12,-0.30
2014,01,25,00,13,-0.30
2014,01,25,00,14,-0.30
2014,01,25,00,15,-0.30
2014,01,25,00,16,-0.30
2014,01,25,00,17,-0.30
2014,01,25,00,18,-0.30
2014,01,25,00,19,-0.30
2014,01,25,00,20,-0.30
2014,01,25,00,21,-0.30
2014,01,25,00,22,-0.30
2014,01,25,00,23,-0.30
2014,01,25,00,24,-0.30
2014,01,25,00,25,-0.40
2014,01,25,00,26,-0.40
2014,01,25,00,27,-0.40
2014,01,25,00,28,-0.40
2014,01,25,00,29,-0.40
2014,01,25,00,30,-0.50
2014,01,25,00,31,-0.50
2014,01,25,00,32,-0.40
2014,01,25,00,33,-0.50
2014,01,25,00,34,-0.40
2014,01,25,00,35,-0.40
2014,01,25,00,36,-0.50
2014,01,25,00,37,-0.50
2014,01,25,00,38,-0.50
2014,01,25,00,39,-0.50
2014,01,25,00,40,-0.50
2014,01,25,00,41,-0.50
2014,01,25,00,42,-0.50
2014,01,25,00,43,-0.50
2014,01,25,00,44,-0.50
2014,01,25,00,45,-0.50
2014,01,25,00,46,-0.50
2014,01,25,00,47,-0.50
2014,01,25,00,48,-0.50
2014,01,25,00,49,-0.50
2014,01,25,00,50,-0.60
2014,01,25,00,51,-0.60
2014,01,25,00,52,-0.60
2014,01,25,00,53,-0.60
2014,01,25,00,54,-0.60
2014,01,25,00,55,-0.70
2014,01,25,00,56,-0.60
2014,01,25,00,57,-0.60
2014,01,25,00,58,-0.60
2014,01,25,00,59,-0.60
2014,01,25,01,00,-0.60
2014,01,25,01,01,-0.60
2014,01,25,01,02,-0.60
2014,01,25,01,03,-0.60
2014,01,25,01,04,-0.60
2014,01,25,01,05,-0.60
2014,01,25,01,06,-0.60
2014,01,25,01,07,-0.60
2014,01,25,01,08,-0.70
2014,01,25,01,09,-0.70
2014,01,25,01,10,-0.70
2014,01,25,01,11,-0.70
2014,01,25,01,12,-0.70
2014,01,25,01,13,-0.70
2014,01,25,01,14,-0.70
2014,01,25,01,15,-0.60
2014,01,25,01,16,-0.60
2014,01,25,01,17,-0.60
2014,01,25,01,18,-0.60
2014,01,25,01,19,-0.60
2014,01,25,01,20,-0.60
2014,01,25,01,21,-0.60
2014,01,25,01,22,-0.60
2014,01,25,01,23,-0.60
2014,01,25,01,24,-0.60
2014,01,25,01,25,-0.60
2014,01,25,01,26,-0.70
2014,01,25,01,27,-0.70
2014,01,25,01,28,-0.70
2014,01,25,01,29,-0.70
2014,01,25,01,30,-0.70
2014,01,25,01,31,-0.70
2014,01,25,01,32,-0.70
2014,01,25,01,33,-0.70
2014,01,25,01,34,-0.70
2014,01,25,01,35,-0.70
2014,01,25,01,36,-0.70
2014,01,25,01,37,-0.70
2014,01,25,01,38,-0.70
2014,01,25,01,39,-0.70
2014,01,25,01,40,-0.70
2014,01,25,01,41,-0.70
2014,01,25,01,42,-0.70
2014,01,25,01,43,-0.70
2014,01,25,01,44,-0.70
2014,01,25,01,45,-0.70
2014,01,25,01,46,-0.70
2014,01,25,01,47,-0.70
2014,01,25,01,48,-0.70
2014,01,25,01,49,-0.70
2014,01,25,01,50,-0.70
2014,01,25,01,51,-0.70
2014,01,25,01,52,-0.70
2014,01,25,01,53,-0.70
2014,01,25,01,54,-0.70
2014,01,25,01,55,-0.70
2014,01,25,01,56,-0.70
2014,01,25,01,57,-0.70
2014,01,25,01,58,-0.70
2014,01,25,01,59,-0.70
2014,01,25,02,00,-0.70
2014,01,25,02,01,-0.70
2014,01,25,02,02,-0.70
2014,01,25,02,03,-0.80
2014,01,25,02,04,-0.80
2014,01,25,02,05,-0.70
2014,01,25,02,06,-0.80
2014,01,25,02,07,-0.80
2014,01,25,02,08,-0.80
2014,01,25,02,09,-0.80
2014,01,25,02,10,-0.80
2014,01,25,02,11,-0.80
2014,01,25,02,12,-0.80
2014,01,25,02,13,-0.80
2014,01,25,02,14,-0.80
2014,01,25,02,15,-0.80
2014,01,25,02,16,-0.80
2014,01,25,02,17,-0.80
2014,01,25,02,18,-0.80
2014,01,25,02,19,-0.80
2014,01,25,02,20,-0.80
2014,01,25,02,21,-0.80
2014,01,25,02,22,-0.80
2014,01,25,02,23,-0.80
2014,01,25,02,24,-0.80
2014,01,25,02,25,-0.80
2014,01,25,02,26,-0.80
2014,01,25,02,27,-0.80
2014,01,25,02,28,-0.80
2014,01,25,02,29,-0.80
2014,01,25,02,30,-0.80
2014,01,25,02,31,-0.80
2014,01,25,02,32,-0.80
2014,01,25,02,33,-0.80
2014,01,25,02,34,-0.80
2014,01,25,02,35,-0.80
2014,01,25,02,36,-0.80
2014,01,25,02,37,-0.80
2014,01,25,02,38,-0.80
2014,01,25,02,39,-0.80
2014,01,25,02,40,-0.80
2014,01,25,02,41,-0.80
2014,01,25,02,42,-0.80
2014,01,25,02,43,-0.80
2014,01,25,02,44,-0.80
2014,01,25,02,45,-0.80
2014,01,25,02,46,-0.80
2014,01,25,02,47,-0.80
2014,01,25,02,48,-0.90
2014,01,25,02,49,-0.90
2014,01,25,02,50,-0.90
2014,01,25,02,51,-0.90
2014,01,25,02,52,-0.90
2014,01,25,02,53,-0.90
2014,01,25,02,54,-0.90
2014,01,25,02,55,-0.90
2014,01,25,02,56,-0.90
2014,01,25,02,57,-0.80
2014,01,25,02,58,-0.80
2014,01,25,02,59,-0.80
2014,01,25,03,00,-0.80
2014,01,25,03,01,-0.80
2014,01,25,03,02,-0.80
2014,01,25,03,03,-0.80
2014,01,25,03,04,-0.80
2014,01,25,03,05,-0.80
2014,01,25,03,06,-0.80
2014,01,25,03,07,-0.80
2014,01,25,03,08,-0.80
2014,01,25,03,09,-0.80
2014,01,25,03,10,-0.80
2014,01,25,03,11,-0.80
2014,01,25,03,12,-0.80
2014,01,25,03,13,-0.80
2014,01,25,03,14,-0.90
2014,01,25,03,15,-0.90
2014,01,25,03,16,-0.90
2014,01,25,03,17,-0.90
2014,01,25,03,18,-0.90
2014,01,25,03,19,-1.00
2014,01,25,03,20,-1.00
2014,01,25,03,21,-1.00
2014,01,25,03,22,-1.00
2014,01,25,03,23,-1.00
2014,01,25,03,24,-1.00
2014,01,25,03,25,-1.00
2014,01,25,03,26,-1.00
2014,01,25,03,27,-1.00
2014,01,25,03,28,-1.00
2014,01,25,03,29,-1.00
2014,01,25,03,30,-1.00
2014,01,25,03,31,-1.00
2014,01,25,03,32,-1.00
2014,01,25,03,33,-1.00
2014,01,25,03,34,-1.00
2014,01,25,03,35,-1.00
2014,01,25,03,36,-1.00
2014,01,25,03,37,-1.00
2014,01,25,03,38,-1.00
2014,01,25,03,39,-1.00
2014,01,25,03,40,-1.00
2014,01,25,03,41,-1.00
2014,01,25,03,42,-1.00
2014,01,25,03,43,-1.00
2014,01,25,03,44,-1.00
2014,01,25,03,45,-1.00
2014,01,25,03,46,-1.00
2014,01,25,03,47,-1.00
2014,01,25,03,48,-1.00
2014,01,25,03,49,-1.00
2014,01,25,03,50,-1.10
2014,01,25,03,51,-1.10
2014,01,25,03,52,-1.10
2014,01,25,03,53,-1.10
2014,01,25,03,54,-1.10
2014,01,25,03,55,-1.10
2014,01,25,03,56,-1.10
2014,01,25,03,57,-1.10
2014,01,25,03,58,-1.10
2014,01,25,03,59,-1.10
2014,01,25,04,00,-1.10
2014,01,25,04,01,-1.10
2014,01,25,04,02,-1.20
2014,01,25,04,03,-1.20
2014,01,25,04,04,-1.20
2014,01,25,04,05,-1.20
2014,01,25,04,06,-1.20
2014,01,25,04,07,-1.20
2014,01,25,04,08,-1.20
2014,01,25,04,09,-1.20
2014,01,25,04,10,-1.20
2014,01,25,04,11,-1.20
2014,01,25,04,12,-1.20
2014,01,25,04,13,-1.20
2014,01,25,04,14,-1.20
2014,01,25,04,15,-1.20
2014,01,25,04,16,-1.20
2014,01,25,04,17,-1.20
2014,01,25,04,18,-1.20
2014,01,25,04,19,-1.20
2014,01,25,04,20,-1.20
2014,01,25,04,21,-1.20
2014,01,25,04,22,-1.20
2014,01,25,04,23,-1.20
2014,01,25,04,24,-1.20
2014,01,25,04,25,-1.20
2014,01,25,04,26,-1.20
2014,01,25,04,27,-1.20
2014,01,25,04,28,-1.20
2014,01,25,04,29,-1.20
2014,01,25,04,30,-1.20
2014,01,25,04,31,-1.20
2014,01,25,04,32,-1.20
2014,01,25,04,33,-1.20
2014,01,25,04,34,-1.20
2014,01,25,04,35,-1.20
2014,01,25,04,36,-1.20
2014,01,25,04,37,-1.20
2014,01,25,04,38,-1.20
2014,01,25,04,39,-1.20
2014,01,25,04,40,-1.20
2014,01,25,04,41,-1.20
2014,01,25,04,42,-1.20
2014,01,25,04,43,-1.20
2014,01,25,04,44,-1.20
2014,01,25,04,45,-1.20
2014,01,25,04,46,-1.20
2014,01,25,04,47,-1.20
2014,01,25,04,48,-1.20
2014,01,25,04,49,-1.10
2014,01,25,04,50,-1.10
2014,01,25,04,51,-1.10
2014,01,25,04,52,-1.10
2014,01,25,04,53,-1.10
2014,01,25,04,54,-1.10
2014,01,25,04,55,-1.10
2014,01,25,04,56,-1.10
2014,01,25,04,57,-1.10
2014,01,25,04,58,-1.10
2014,01,25,04,59,-1.10
2014,01,25,05,00,-1.10
2014,01,25,05,01,-1.10
2014,01,25,05,02,-1.10
2014,01,25,05,03,-1.10
2014,01,25,05,04,-1.10
2014,01,25,05,05,-1.20
2014,01,25,05,06,-1.20
2014,01,25,05,07,-1.20
2014,01,25,05,08,-1.20
2014,01,25,05,09,-1.20
2014,01,25,05,10,-1.20
2014,01,25,05,11,-1.20
2014,01,25,05,12,-1.20
2014,01,25,05,13,-1.20
2014,01,25,05,14,-1.30
2014,01,25,05,15,-1.30
2014,01,25,05,16,-1.30
2014,01,25,05,17,-1.30
2014,01,25,05,18,-1.30
2014,01,25,05,19,-1.30
2014,01,25,05,20,-1.20
2014,01,25,05,21,-1.20
2014,01,25,05,22,-1.30
2014,01,25,05,23,-1.30
2014,01,25,05,24,-1.20
2014,01,25,05,25,-1.30
2014,01,25,05,26,-1.30
2014,01,25,05,27,-1.30
2014,01,25,05,28,-1.30
2014,01,25,05,29,-1.30
2014,01,25,05,30,-1.30
2014,01,25,05,31,-1.30
2014,01,25,05,32,-1.30
2014,01,25,05,33,-1.30
2014,01,25,05,34,-1.30
2014,01,25,05,35,-1.30
2014,01,25,05,36,-1.30
2014,01,25,05,37,-1.30
2014,01,25,05,38,-1.30
2014,01,25,05,39,-1.30
2014,01,25,05,40,-1.30
2014,01,25,05,41,-1.30
2014,01,25,05,42,-1.30
2014,01,25,05,43,-1.30
2014,01,25,05,44,-1.30
2014,01,25,05,45,-1.30
2014,01,25,05,46,-1.30
2014,01,25,05,47,-1.30
2014,01,25,05,48,-1.30
2014,01,25,05,49,-1.30
2014,01,25,05,50,-1.20
2014,01,25,05,51,-1.20
2014,01,25,05,52,-1.20
2014,01,25,05,53,-1.20
2014,01,25,05,54,-1.20
2014,01,25,05,55,-1.20
2014,01,25,05,56,-1.20
2014,01,25,05,57,-1.20
2014,01,25,05,58,-1.20
2014,01,25,05,59,-1.20
2014,01,25,06,00,-1.20
2014,01,25,06,01,-1.20
2014,01,25,06,02,-1.20
2014,01,25,06,03,-1.20
2014,01,25,06,04,-1.20
2014,01,25,06,05,-1.20
2014,01,25,06,06,-1.20
2014,01,25,06,07,-1.20
2014,01,25,06,08,-1.20
2014,01,25,06,09,-1.20
2014,01,25,06,10,-1.20
2014,01,25,06,11,-1.20
2014,01,25,06,12,-1.20
2014,01,25,06,13,-1.20
2014,01,25,06,14,-1.20
2014,01,25,06,15,-1.20
2014,01,25,06,16,-1.30
2014,01,25,06,17,-1.30
2014,01,25,06,18,-1.30
2014,01,25,06,19,-1.30
2014,01,25,06,20,-1.30
2014,01,25,06,21,-1.30
2014,01,25,06,22,-1.30
2014,01,25,06,23,-1.30
2014,01,25,06,24,-1.30
2014,01,25,06,25,-1.30
2014,01,25,06,26,-1.30
2014,01,25,06,27,-1.30
2014,01,25,06,28,-1.30
2014,01,25,06,29,-1.30
2014,01,25,06,30,-1.30
2014,01,25,06,31,-1.30
2014,01,25,06,32,-1.30
2014,01,25,06,33,-1.30
2014,01,25,06,34,-1.30
2014,01,25,06,35,-1.30
2014,01,25,06,36,-1.30
2014,01,25,06,37,-1.20
2014,01,25,06,38,-1.20
2014,01,25,06,39,-1.20
2014,01,25,06,40,-1.20
2014,01,25,06,41,-1.20
2014,01,25,06,42,-1.20
2014,01,25,06,43,-1.20
2014,01,25,06,44,-1.20
2014,01,25,06,45,-1.20
2014,01,25,06,46,-1.30
2014,01,25,06,47,-1.30
2014,01,25,06,48,-1.30
2014,01,25,06,49,-1.30
2014,01,25,06,50,-1.30
2014,01,25,06,51,-1.30
2014,01,25,06,52,-1.30
2014,01,25,06,53,-1.30
2014,01,25,06,54,-1.30
2014,01,25,06,55,-1.30
2014,01,25,06,56,-1.30
2014,01,25,06,57,-1.30
2014,01,25,06,58,-1.30
2014,01,25,06,59,-1.30
2014,01,25,07,00,-1.30
2014,01,25,07,01,-1.30
2014,01,25,07,02,-1.30
2014,01,25,07,03,-1.30
2014,01,25,07,04,-1.30
2014,01,25,07,05,-1.30
2014,01,25,07,06,-1.30
2014,01,25,07,07,-1.30
2014,01,25,07,08,-1.30
2014,01,25,07,09,-1.40
2014,01,25,07,10,-1.40
2014,01,25,07,11,-1.40
2014,01,25,07,12,-1.40
2014,01,25,07,13,-1.40
2014,01,25,07,14,-1.40
2014,01,25,07,15,-1.40
2014,01,25,07,16,-1.40
2014,01,25,07,17,-1.40
2014,01,25,07,18,-1.40
2014,01,25,07,19,-1.40
2014,01,25,07,20,-1.40
2014,01,25,07,21,-1.40
2014,01,25,07,22,-1.40
2014,01,25,07,23,-1.40
2014,01,25,07,24,-1.40
2014,01,25,07,25,-1.40
2014,01,25,07,26,-1.40
2014,01,25,07,27,-1.40
2014,01,25,07,28,-1.40
2014,01,25,07,29,-1.40
2014,01,25,07,30,-1.40
2014,01,25,07,31,-1.40
2014,01,25,07,32,-1.40
2014,01,25,07,33,-1.40
2014,01,25,07,34,-1.30
2014,01,25,07,35,-1.30
2014,01,25,07,36,-1.30
2014,01,25,07,37,-1.30
2014,01,25,07,38,-1.30
2014,01,25,07,39,-1.30
2014,01,25,07,40,-1.30
2014,01,25,07,41,-1.30
2014,01,25,07,42,-1.30
2014,01,25,07,43,-1.30
2014,01,25,07,44,-1.30
2014,01,25,07,45,-1.30
2014,01,25,07,46,-1.30
2014,01,25,07,47,-1.30
2014,01,25,07,48,-1.30
2014,01,25,07,49,-1.30
2014,01,25,07,50,-1.30
2014,01,25,07,51,-1.30
2014,01,25,07,52,-1.30
2014,01,25,07,53,-1.30
2014,01,25,07,54,-1.30
2014,01,25,07,55,-1.30
2014,01,25,07,56,-1.30
2014,01,25,07,57,-1.30
2014,01,25,07,58,-1.30
2014,01,25,07,59,-1.30
2014,01,25,08,00,-1.30
2014,01,25,08,01,-1.30
2014,01,25,08,02,-1.30
2014,01,25,08,03,-1.30
2014,01,25,08,04,-1.30
2014,01,25,08,05,-1.40
2014,01,25,08,06,-1.40
2014,01,25,08,07,-1.40
2014,01,25,08,08,-1.40
2014,01,25,08,09,-1.40
2014,01,25,08,10,-1.40
2014,01,25,08,11,-1.40
2014,01,25,08,12,-1.50
2014,01,25,08,13,-1.50
2014,01,25,08,14,-1.50
2014,01,25,08,15,-1.60
2014,01,25,08,16,-1.60
2014,01,25,08,17,-1.60
2014,01,25,08,18,-1.60
2014,01,25,08,19,-1.60
2014,01,25,08,20,-1.60
2014,01,25,08,21,-1.60
2014,01,25,08,22,-1.60
2014,01,25,08,23,-1.60
2014,01,25,08,24,-1.60
2014,01,25,08,25,-1.50
2014,01,25,08,26,-1.50
2014,01,25,08,27,-1.50
2014,01,25,08,28,-1.50
2014,01,25,08,29,-1.50
2014,01,25,08,30,-1.50
2014,01,25,08,31,-1.50
2014,01,25,08,32,-1.50
2014,01,25,08,33,-1.60
2014,01,25,08,34,-1.60
2014,01,25,08,35,-1.60
2014,01,25,08,36,-1.60
2014,01,25,08,37,-1.60
2014,01,25,08,38,-1.60
2014,01,25,08,39,-1.60
2014,01,25,08,40,-1.60
2014,01,25,08,41,-1.60
2014,01,25,08,42,-1.60
2014,01,25,08,43,-1.60
2014,01,25,08,44,-1.60
2014,01,25,08,45,-1.60
2014,01,25,08,46,-1.60
2014,01,25,08,47,-1.60
2014,01,25,08,48,-1.60
2014,01,25,08,49,-1.60
2014,01,25,08,50,-1.60
2014,01,25,08,51,-1.60
2014,01,25,08,52,-1.60
2014,01,25,08,53,-1.60
2014,01,25,08,54,-1.60
2014,01,25,08,55,-1.60
2014,01,25,08,56,-1.60
2014,01,25,08,57,-1.60
2014,01,25,08,58,-1.50
2014,01,25,08,59,-1.50
2014,01,25,09,00,-1.60
2014,01,25,09,01,-1.50
2014,01,25,09,02,-1.50
2014,01,25,09,03,-1.50
2014,01,25,09,04,-1.50
2014,01,25,09,05,-1.50
2014,01,25,09,06,-1.50
2014,01,25,09,07,-1.40
2014,01,25,09,08,-1.40
2014,01,25,09,09,-1.40
2014,01,25,09,10,-1.40
2014,01,25,09,11,-1.40
2014,01,25,09,12,-1.30
2014,01,25,09,13,-1.30
2014,01,25,09,14,-1.30
2014,01,25,09,15,-1.20
2014,01,25,09,16,-1.10
2014,01,25,09,17,-1.10
2014,01,25,09,18,-1.00
2014,01,25,09,19,-1.00
2014,01,25,09,20,-0.90
2014,01,25,09,21,-0.90
2014,01,25,09,22,-0.90
2014,01,25,09,23,-0.80
2014,01,25,09,24,-0.80
2014,01,25,09,25,-0.70
2014,01,25,09,26,-0.70
2014,01,25,09,27,-0.60
2014,01,25,09,28,-0.50
2014,01,25,09,29,-0.50
2014,01,25,09,30,-0.40
2014,01,25,09,31,-0.40
2014,01,25,09,32,-0.30
2014,01,25,09,33,-0.20
2014,01,25,09,34,0.00
2014,01,25,09,35,0.10
2014,01,25,09,36,0.20
2014,01,25,09,37,0.30
2014,01,25,09,38,0.40
2014,01,25,09,39,0.50
2014,01,25,09,40,0.60
2014,01,25,09,41,0.70
2014,01,25,09,42,0.80
2014,01,25,09,43,0.90
2014,01,25,09,44,0.90
2014,01,25,09,45,0.90
2014,01,25,09,46,0.90
2014,01,25,09,47,0.90
2014,01,25,09,48,0.90
2014,01,25,09,49,0.90
2014,01,25,09,50,0.90
2014,01,25,09,51,0.90
2014,01,25,09,52,0.90
2014,01,25,09,53,1.00
2014,01,25,09,54,1.00
2014,01,25,09,55,1.10
2014,01,25,09,56,1.20
2014,01,25,09,57,1.20
2014,01,25,09,58,1.20
2014,01,25,09,59,1.30
2014,01,25,10,00,1.30
2014,01,25,10,01,1.30
2014,01,25,10,02,1.30
2014,01,25,10,03,1.30
2014,01,25,10,04,1.30
2014,01,25,10,05,1.30
2014,01,25,10,06,1.40
2014,01,25,10,07,1.60
2014,01,25,10,08,1.70
2014,01,25,10,09,1.70
2014,01,25,10,10,1.80
2014,01,25,10,11,1.80
2014,01,25,10,12,1.80
2014,01,25,10,13,1.80
2014,01,25,10,14,1.80
2014,01,25,10,15,1.80
2014,01,25,10,16,1.80
2014,01,25,10,17,1.80
2014,01,25,10,18,1.80
2014,01,25,10,19,1.90
2014,01,25,10,20,1.90
2014,01,25,10,21,2.00
2014,01,25,10,22,2.10
2014,01,25,10,23,2.10
2014,01,25,10,24,2.10
2014,01,25,10,25,2.10
2014,01,25,10,26,2.00
2014,01,25,10,27,2.00
2014,01,25,10,28,1.90
2014,01,25,10,29,1.90
2014,01,25,10,30,1.80
2014,01,25,10,31,1.80
2014,01,25,10,32,1.70
2014,01,25,10,33,1.70
2014,01,25,10,34,1.70
2014,01,25,10,35,1.70
2014,01,25,10,36,1.70
2014,01,25,10,37,1.80
2014,01,25,10,38,1.80
2014,01,25,10,39,1.80
2014,01,25,10,40,1.90
2014,01,25,10,41,1.90
2014,01,25,10,42,1.90
2014,01,25,10,43,2.00
2014,01,25,10,44,2.10
2014,01,25,10,45,2.10
2014,01,25,10,46,2.20
2014,01,25,10,47,2.20
2014,01,25,10,48,2.30
2014,01,25,10,49,2.50
2014,01,25,10,50,2.60
2014,01,25,10,51,2.70
2014,01,25,10,52,2.80
2014,01,25,10,53,2.90
2014,01,25,10,54,3.00
2014,01,25,10,55,3.10
2014,01,25,10,56,3.20
2014,01,25,10,57,3.30
2014,01,25,10,58,3.30
2014,01,25,10,59,3.40
2014,01,25,11,00,3.50
2014,01,25,11,01,3.60
2014,01,25,11,02,3.70
2014,01,25,11,03,3.70
2014,01,25,11,04,3.80
2014,01,25,11,05,3.90
2014,01,25,11,06,4.00
2014,01,25,11,07,4.10
2014,01,25,11,08,4.20
2014,01,25,11,09,4.20
2014,01,25,11,10,4.20
2014,01,25,11,11,4.30
2014,01,25,11,12,4.30
2014,01,25,11,13,4.30
2014,01,25,11,14,4.40
2014,01,25,11,15,4.40
2014,01,25,11,16,4.50
2014,01,25,11,17,4.60
2014,01,25,11,18,4.70
2014,01,25,11,19,4.80
2014,01,25,11,20,4.80
2014,01,25,11,21,5.00
2014,01,25,11,22,5.00
2014,01,25,11,23,5.10
2014,01,25,11,24,5.10
2014,01,25,11,25,5.20
2014,01,25,11,26,5.20
2014,01,25,11,27,5.20
2014,01,25,11,28,5.20
2014,01,25,11,29,5.20
2014,01,25,11,30,5.20
2014,01,25,11,31,5.30
2014,01,25,11,32,5.40
2014,01,25,11,33,5.40
2014,01,25,11,34,5.50
2014,01,25,11,35,5.50
2014,01,25,11,36,5.60
2014,01,25,11,37,5.60
2014,01,25,11,38,5.60
2014,01,25,11,39,5.60
2014,01,25,11,40,5.60
2014,01,25,11,41,5.60
2014,01,25,11,42,5.60
2014,01,25,11,43,5.60
2014,01,25,11,44,5.60
2014,01,25,11,45,5.60
2014,01,25,11,46,5.70
2014,01,25,11,47,5.70
2014,01,25,11,48,5.80
2014,01,25,11,49,5.80
2014,01,25,11,50,5.90
2014,01,25,11,51,5.90
2014,01,25,11,52,6.00
2014,01,25,11,53,6.00
2014,01,25,11,54,6.10
2014,01,25,11,55,6.10
2014,01,25,11,56,6.00
2014,01,25,11,57,6.00
2014,01,25,11,58,6.00
2014,01,25,11,59,6.00
2014,01,25,12,00,6.10
2014,01,25,12,01,6.20
2014,01,25,12,02,6.30
2014,01,25,12,03,6.40
2014,01,25,12,04,6.50
2014,01,25,12,05,6.60
2014,01,25,12,06,6.70
2014,01,25,12,07,6.80
2014,01,25,12,08,6.90
2014,01,25,12,09,6.90
2014,01,25,12,10,7.00
2014,01,25,12,11,7.00
2014,01,25,12,12,7.10
2014,01,25,12,13,7.10
2014,01,25,12,14,7.10
2014,01,25,12,15,7.00
2014,01,25,12,16,7.00
2014,01,25,12,17,7.00
2014,01,25,12,18,7.00
2014,01,25,12,19,7.10
2014,01,25,12,20,7.10
2014,01,25,12,21,7.10
2014,01,25,12,22,7.20
2014,01,25,12,23,7.20
2014,01,25,12,24,7.30
2014,01,25,12,25,7.30
2014,01,25,12,26,7.40
2014,01,25,12,27,7.40
2014,01,25,12,28,7.50
2014,01,25,12,29,7.50
2014,01,25,12,30,7.50
2014,01,25,12,31,7.60
2014,01,25,12,32,7.60
2014,01,25,12,33,7.60
2014,01,25,12,34,7.70
2014,01,25,12,35,7.80
2014,01,25,12,36,7.90
2014,01,25,12,37,8.00
2014,01,25,12,38,8.10
2014,01,25,12,39,8.10
2014,01,25,12,40,8.20
2014,01,25,12,41,8.30
2014,01,25,12,42,8.30
2014,01,25,12,43,8.20
2014,01,25,12,44,8.20
2014,01,25,12,45,8.20
2014,01,25,12,46,8.10
2014,01,25,12,47,8.10
2014,01,25,12,48,8.10
2014,01,25,12,49,8.00
2014,01,25,12,50,8.00
2014,01,25,12,51,7.90
2014,01,25,12,52,7.90
2014,01,25,12,53,7.90
2014,01,25,12,54,7.90
2014,01,25,12,55,7.90
2014,01,25,12,56,7.90
2014,01,25,12,57,7.90
2014,01,25,12,58,7.90
2014,01,25,12,59,8.00
2014,01,25,13,00,8.10
2014,01,25,13,01,8.20
2014,01,25,13,02,8.30
2014,01,25,13,03,8.40
2014,01,25,13,04,8.50
2014,01,25,13,05,8.60
2014,01,25,13,06,8.70
2014,01,25,13,07,8.80
2014,01,25,13,08,8.80
2014,01,25,13,09,8.90
2014,01,25,13,10,9.00
2014,01,25,13,11,9.10
2014,01,25,13,12,9.10
2014,01,25,13,13,9.20
2014,01,25,13,14,9.30
2014,01,25,13,15,9.30
2014,01,25,13,16,9.40
2014,01,25,13,17,9.40
2014,01,25,13,18,9.50
2014,01,25,13,19,9.50
2014,01,25,13,20,9.60
2014,01,25,13,21,9.60
2014,01,25,13,22,9.70
2014,01,25,13,23,9.80
2014,01,25,13,24,9.80
2014,01,25,13,25,9.90
2014,01,25,13,26,9.90
2014,01,25,13,27,10.00
2014,01,25,13,28,10.00
2014,01,25,13,29,10.10
2014,01,25,13,30,10.20
2014,01,25,13,31,10.20
2014,01,25,13,32,10.30
2014,01,25,13,33,10.40
2014,01,25,13,34,10.40
2014,01,25,13,35,10.50
2014,01,25,13,36,10.50
2014,01,25,13,37,10.60
2014,01,25,13,38,10.60
2014,01,25,13,39,10.70
2014,01,25,13,40,10.70
2014,01,25,13,41,10.70
2014,01,25,13,42,10.70
2014,01,25,13,43,10.70
2014,01,25,13,44,10.70
2014,01,25,13,45,10.70
2014,01,25,13,46,10.70
2014,01,25,13,47,10.70
2014,01,25,13,48,10.70
2014,01,25,13,49,10.80
2014,01,25,13,50,10.80
2014,01,25,13,51,10.80
2014,01,25,13,52,10.90
2014,01,25,13,53,11.00
2014,01,25,13,54,11.10
2014,01,25,13,55,11.10
2014,01,25,13,56,11.10
2014,01,25,13,57,11.10
2014,01,25,13,58,11.10
2014,01,25,13,59,11.10
2014,01,25,14,00,11.10
2014,01,25,14,01,11.10
2014,01,25,14,02,11.10
2014,01,25,14,03,11.20
2014,01,25,14,04,11.20
2014,01,25,14,05,11.20
2014,01,25,14,06,11.30
2014,01,25,14,07,11.30
2014,01,25,14,08,11.40
2014,01,25,14,09,11.40
2014,01,25,14,10,11.40
2014,01,25,14,11,11.40
2014,01,25,14,12,11.50
2014,01,25,14,13,11.50
2014,01,25,14,14,11.50
2014,01,25,14,15,11.50
2014,01,25,14,16,11.60
2014,01,25,14,17,11.60
2014,01,25,14,18,11.60
2014,01,25,14,19,11.60
2014,01,25,14,20,11.60
2014,01,25,14,21,11.60
2014,01,25,14,22,11.60
2014,01,25,14,23,11.60
2014,01,25,14,24,11.50
2014,01,25,14,25,11.50
2014,01,25,14,26,11.50
2014,01,25,14,27,11.40
2014,01,25,14,28,11.40
2014,01,25,14,29,11.40
2014,01,25,14,30,11.40
2014,01,25,14,31,11.30
2014,01,25,14,32,11.30
2014,01,25,14,33,11.30
2014,01,25,14,34,11.30
2014,01,25,14,35,11.30
2014,01,25,14,36,11.30
2014,01,25,14,37,11.30
2014,01,25,14,38,11.30
2014,01,25,14,39,11.30
2014,01,25,14,40,11.30
2014,01,25,14,41,11.30
2014,01,25,14,42,11.30
2014,01,25,14,43,11.30
2014,01,25,14,44,11.30
2014,01,25,14,45,11.30
2014,01,25,14,46,11.40
2014,01,25,14,47,11.40
2014,01,25,14,48,11.40
2014,01,25,14,49,11.50
2014,01,25,14,50,11.50
2014,01,25,14,51,11.60
2014,01,25,14,52,11.60
2014,01,25,14,53,11.60
2014,01,25,14,54,11.60
2014,01,25,14,55,11.60
2014,01,25,14,56,11.60
2014,01,25,14,57,11.60
2014,01,25,14,58,11.60
2014,01,25,14,59,11.50
2014,01,25,15,00,11.50
2014,01,25,15,01,11.40
2014,01,25,15,02,11.30
2014,01,25,15,03,11.30
2014,01,25,15,04,11.30
2014,01,25,15,05,11.20
2014,01,25,15,06,11.20
2014,01,25,15,07,11.20
2014,01,25,15,08,11.10
2014,01,25,15,09,11.10
2014,01,25,15,10,11.10
2014,01,25,15,11,11.10
2014,01,25,15,12,11.10
2014,01,25,15,13,11.20
2014,01,25,15,14,11.20
2014,01,25,15,15,11.20
2014,01,25,15,16,11.30
2014,01,25,15,17,11.30
2014,01,25,15,18,11.30
2014,01,25,15,19,11.40
2014,01,25,15,20,11.40
2014,01,25,15,21,11.40
2014,01,25,15,22,11.40
2014,01,25,15,23,11.30
2014,01,25,15,24,11.20
2014,01,25,15,25,11.10
2014,01,25,15,26,10.90
2014,01,25,15,27,10.60
2014,01,25,15,28,10.40
2014,01,25,15,29,10.20
2014,01,25,15,30,10.00
2014,01,25,15,31,9.70
2014,01,25,15,32,9.50
2014,01,25,15,33,9.30
2014,01,25,15,34,9.10
2014,01,25,15,35,9.00
2014,01,25,15,36,8.80
2014,01,25,15,37,8.70
2014,01,25,15,38,8.50
2014,01,25,15,39,8.40
2014,01,25,15,40,8.30
2014,01,25,15,41,8.20
2014,01,25,15,42,8.00
2014,01,25,15,43,7.90
2014,01,25,15,44,7.90
2014,01,25,15,45,7.80
2014,01,25,15,46,7.80
2014,01,25,15,47,7.70
2014,01,25,15,48,7.70
2014,01,25,15,49,7.60
2014,01,25,15,50,7.60
2014,01,25,15,51,7.60
2014,01,25,15,52,7.50
2014,01,25,15,53,7.50
2014,01,25,15,54,7.40
2014,01,25,15,55,7.40
2014,01,25,15,56,7.40
2014,01,25,15,57,7.30
2014,01,25,15,58,7.30
2014,01,25,15,59,7.20
2014,01,25,16,00,7.20
2014,01,25,16,01,7.10
2014,01,25,16,02,7.10
2014,01,25,16,03,7.10
2014,01,25,16,04,7.00
2014,01,25,16,05,6.90
2014,01,25,16,06,6.90
2014,01,25,16,07,6.80
2014,01,25,16,08,6.70
2014,01,25,16,09,6.70
2014,01,25,16,10,6.60
2014,01,25,16,11,6.60
2014,01,25,16,12,6.50
2014,01,25,16,13,6.50
2014,01,25,16,14,6.40
2014,01,25,16,15,6.40
2014,01,25,16,16,6.40
2014,01,25,16,17,6.30
2014,01,25,16,18,6.30
2014,01,25,16,19,6.20
2014,01,25,16,20,6.20
2014,01,25,16,21,6.20
2014,01,25,16,22,6.10
2014,01,25,16,23,6.10
2014,01,25,16,24,6.10
2014,01,25,16,25,6.10
2014,01,25,16,26,6.00
2014,01,25,16,27,6.00
2014,01,25,16,28,5.90
2014,01,25,16,29,5.90
2014,01,25,16,30,5.90
2014,01,25,16,31,5.90
2014,01,25,16,32,5.80
2014,01,25,16,33,5.80
2014,01,25,16,34,5.80
2014,01,25,16,35,5.70
2014,01,25,16,36,5.70
2014,01,25,16,37,5.60
2014,01,25,16,38,5.60
2014,01,25,16,39,5.50
2014,01,25,16,40,5.40
2014,01,25,16,41,5.40
2014,01,25,16,42,5.30
2014,01,25,16,43,5.30
2014,01,25,16,44,5.20
2014,01,25,16,45,5.20
2014,01,25,16,46,5.20
2014,01,25,16,47,5.10
2014,01,25,16,48,5.10
2014,01,25,16,49,5.10
2014,01,25,16,50,5.00
2014,01,25,16,51,5.00
2014,01,25,16,52,5.00
2014,01,25,16,53,5.00
2014,01,25,16,54,4.90
2014,01,25,16,55,4.90
2014,01,25,16,56,4.80
2014,01,25,16,57,4.80
2014,01,25,16,58,4.80
2014,01,25,16,59,4.80
2014,01,25,17,00,4.70
2014,01,25,17,01,4.70
2014,01,25,17,02,4.70
2014,01,25,17,03,4.70
2014,01,25,17,04,4.70
2014,01,25,17,05,4.60
2014,01,25,17,06,4.60
2014,01,25,17,07,4.60
2014,01,25,17,08,4.60
2014,01,25,17,09,4.50
2014,01,25,17,10,4.50
2014,01,25,17,11,4.50
2014,01,25,17,12,4.40
2014,01,25,17,13,4.40
2014,01,25,17,14,4.40
2014,01,25,17,15,4.40
2014,01,25,17,16,4.30
2014,01,25,17,17,4.30
2014,01,25,17,18,4.30
2014,01,25,17,19,4.30
2014,01,25,17,20,4.30
2014,01,25,17,21,4.20
2014,01,25,17,22,4.20
2014,01,25,17,23,4.20
2014,01,25,17,24,4.20
2014,01,25,17,25,4.10
2014,01,25,17,26,4.10
2014,01,25,17,27,4.00
2014,01,25,17,28,4.00
2014,01,25,17,29,3.90
2014,01,25,17,30,3.90
2014,01,25,17,31,3.90
2014,01,25,17,32,3.80
2014,01,25,17,33,3.80
2014,01,25,17,34,3.80
2014,01,25,17,35,3.70